Home   Weather   Ras al-Khaimah   Past weeks

Flag for United Arab Emirates Past Weather in Ras al-Khaimah, Ras al-Khaimah, United Arab Emirates — Yesterday and Last 2 Weeks

Now
72 °F

Scattered clouds.


Feels Like: 76 °F
Forecast: 56 / 71 °F
Wind: 10 mph from West

Location: Ras Al Khaimah International Airport

Current Time: Jan 24, 2017 at 11:38:26 am

Latest Report: Jan 24, 2017 at 11:00 am


Visibility: N/A

Pressure: 30.09 "Hg

Humidity: 57%

Dew Point: 55 °F

Location of Ras al-KhaimahLocation

Past Weather in Ras al-Khaimah — Graph

°F

Ras al-Khaimah Temperature Yesterday

Maximum temperature yesterday: 82 °F (at 1:30 pm)
Minimum temperature yesterday: 68 °F (at 2:00 am)
Average temperature yesterday: 74 °F

High & Low Weather Summary for the Past Weeks

 TemperatureHumidityPressure
High84 °F (Jan 21, 1:00 pm)100% (Jan 10, 4:00 am)30.15 "Hg (Jan 10, 4:00 am)
Low52 °F (Jan 16, 7:00 am)35% (Jan 21, 1:00 pm)29.83 "Hg (Jan 13, 2:00 pm)
Average69 °F69%30.03 "Hg
* Reported Jan 9 10:00 am — Jan 24 10:00 am, Ras al-Khaimah, Weather by CustomWeather, © 2017

Note: Actual official high and low records may vary slightly from our data, if they occured in-between our weather recording intervals... More about our weather records

Advertising

Ras al-Khaimah Weather History for the Previous 24 Hours

Scroll right to see more
 ConditionsComfort  
Time TempWeatherWind HumidityBarometerVisibility
10:00 am
Tue, Jan 24
70 °FScattered clouds.9 mph100%30.09 "HgN/A
8:00 am66 °FSunny.5 mph73%30.04 "Hg10 mi
7:00 am64 °FClear.5 mph78%30.04 "Hg10 mi
6:00 am64 °FClear.5 mph83%30.01 "Hg10 mi
5:00 am66 °FClear.5 mph78%29.98 "Hg5 mi
4:00 am68 °FClear.3 mph78%29.98 "Hg4 mi
3:00 am68 °FClear.5 mph83%29.98 "Hg4 mi
2:00 am70 °FHaze.6 mph78%30.01 "Hg3 mi
1:00 am70 °FHaze.5 mph83%30.01 "Hg2 mi
12:00 am70 °FHaze.5 mph88%30.01 "Hg2 mi
11:00 pm
Mon, Jan 23
72 °FClear.3 mph83%30.04 "Hg3 mi
10:00 pm72 °FClear.3 mph83%30.04 "Hg4 mi
9:00 pm73 °FClear.2 mph78%30.04 "Hg10 mi
8:00 pm73 °FClear.5 mph78%30.04 "Hg5 mi
7:00 pm73 °FClear.6 mph78%30.01 "Hg5 mi
6:00 pm73 °FClear.8 mph78%29.98 "Hg4 mi
5:00 pm77 °FPassing clouds.14 mph65%29.98 "Hg4 mi
4:00 pm79 °FPassing clouds.16 mph54%29.98 "Hg4 mi
3:00 pm81 °FLow level haze.20 mph48%29.98 "Hg2 mi
2:00 pm81 °FScattered clouds.18 mph51%29.98 "Hg2 mi
1:30 pm82 °FScattered clouds.18 mph48%29.98 "Hg2 mi
1:00 pm81 °FScattered clouds.17 mph54%30.01 "Hg3 mi
12:40 pm81 °FScattered clouds.15 mph54%30.01 "Hg3 mi
12:00 pm79 °FPassing clouds.12 mph61%30.04 "Hg5 mi
11:00 am77 °FPassing clouds.6 mph65%30.07 "HgN/A
Weather by CustomWeather, © 2017

See weather overviewHow to use our weather pages